• En España
  • Lista de países
  • Para 7 días
  • Temperatura del agua
  • Mapa Satelital
  • El tiempo en el mapa
  • Informadores
  • user-avatar
    Iniciar sesión

    Tiempo cada hora Vialonga

    Hoy, 15 Octubre, Lunes

    Tiempo Temperatura Precipitaciones Viento Presión Humedad
    00:00 +14°C° 0 mm 4 mps 749 mmHg 75%
    01:00 +14°C° 0 mm 5 mps 748 mmHg 75%
    02:00 +15°C° 0 mm 6 mps 748 mmHg 75%
    03:00 +16°C° 0.2 mm 6 mps 747 mmHg 78%
    04:00 +16°C° 0.2 mm 7 mps 746 mmHg 80%
    05:00 +17°C° 0.2 mm 8 mps 746 mmHg 83%
    06:00 +18°C° 0.7 mm 8 mps 746 mmHg 82%
    07:00 +18°C° 0.7 mm 9 mps 745 mmHg 81%
    08:00 +19°C° 0.7 mm 9 mps 745 mmHg 80%
    09:00 +19°C° 0.2 mm 9 mps 745 mmHg 76%
    10:00 +20°C° 0.2 mm 8 mps 745 mmHg 72%
    11:00 +20°C° 0.2 mm 8 mps 745 mmHg 68%
    12:00 +18°C° 0.2 mm 8 mps 745 mmHg 71%
    13:00 +18°C° 0.2 mm 7 mps 745 mmHg 73%
    14:00 +18°C° 0.2 mm 7 mps 744 mmHg 76%
    15:00 +17°C° 0.2 mm 6 mps 745 mmHg 79%
    16:00 +17°C° 0.2 mm 5 mps 745 mmHg 81%
    17:00 +18°C° 0.2 mm 4 mps 745 mmHg 83%
    18:00 +17°C° 0.1 mm 4 mps 745 mmHg 86%
    19:00 +17°C° 0.1 mm 3 mps 746 mmHg 89%
    20:00 +16°C° 0.1 mm 3 mps 746 mmHg 92%
    21:00 +16°C° 0 mm 3 mps 746 mmHg 93%
    22:00 +16°C° 0 mm 2 mps 747 mmHg 93%
    23:00 +16°C° 0 mm 2 mps 747 mmHg 94%

    Mañana, 16 Octubre, Martes

    Tiempo Temperatura Precipitaciones Viento Presión Humedad
    00:00 +16°C° 0 mm 2 mps 747 mmHg 94%
    01:00 +16°C° 0 mm 2 mps 747 mmHg 94%
    02:00 +16°C° 0 mm 1 mps 747 mmHg 94%
    03:00 +16°C° 0 mm 1 mps 747 mmHg 93%
    04:00 +16°C° 0 mm 1 mps 747 mmHg 93%
    05:00 +16°C° 0 mm 1 mps 748 mmHg 92%
    06:00 +18°C° 0 mm 1 mps 748 mmHg 89%
    07:00 +18°C° 0 mm 1 mps 749 mmHg 85%
    08:00 +19°C° 0 mm 1 mps 749 mmHg 82%
    09:00 +19°C° 0 mm 2 mps 750 mmHg 74%
    10:00 +21°C° 0 mm 2 mps 750 mmHg 67%
    11:00 +23°C° 0 mm 2 mps 750 mmHg 59%
    12:00 +24°C° 0 mm 2 mps 750 mmHg 58%
    13:00 +24°C° 0 mm 3 mps 750 mmHg 56%
    14:00 +24°C° 0 mm 3 mps 750 mmHg 55%
    15:00 +22°C° 0 mm 4 mps 750 mmHg 59%
    16:00 +21°C° 0 mm 4 mps 750 mmHg 63%
    17:00 +20°C° 0 mm 4 mps 751 mmHg 68%
    18:00 +19°C° 0 mm 4 mps 751 mmHg 74%
    19:00 +18°C° 0 mm 4 mps 751 mmHg 80%
    20:00 +17°C° 0 mm 4 mps 752 mmHg 86%
    21:00 +15°C° 0 mm 4 mps 752 mmHg 89%
    22:00 +16°C° 0 mm 3 mps 752 mmHg 91%
    23:00 +14°C° 0 mm 3 mps 752 mmHg 93%

    Pasado mañana, 17 Octubre, Miércoles

    Tiempo Temperatura Precipitaciones Viento Presión Humedad
    00:00 +14°C° 0 mm 3 mps 752 mmHg 93%
    01:00 +14°C° 0 mm 3 mps 752 mmHg 93%
    02:00 +14°C° 0 mm 3 mps 751 mmHg 93%
    03:00 +14°C° 0 mm 3 mps 751 mmHg 92%
    04:00 +13°C° 0 mm 4 mps 751 mmHg 92%
    05:00 +13°C° 0 mm 4 mps 751 mmHg 91%
    06:00 +15°C° 0 mm 4 mps 751 mmHg 84%
    07:00 +17°C° 0 mm 4 mps 752 mmHg 76%
    08:00 +18°C° 0 mm 4 mps 752 mmHg 68%
    09:00 +20°C° 0 mm 4 mps 752 mmHg 60%
    10:00 +22°C° 0 mm 5 mps 752 mmHg 51%
    11:00 +25°C° 0 mm 5 mps 752 mmHg 43%
    12:00 +23°C° 0.1 mm 6 mps 751 mmHg 48%
    13:00 +23°C° 0.1 mm 7 mps 751 mmHg 54%
    14:00 +22°C° 0.1 mm 8 mps 750 mmHg 60%
    15:00 +20°C° 0 mm 8 mps 750 mmHg 63%
    16:00 +18°C° 0 mm 8 mps 750 mmHg 67%
    17:00 +16°C° 0 mm 8 mps 750 mmHg 70%
    18:00 +15°C° 0 mm 7 mps 751 mmHg 72%
    19:00 +15°C° 0 mm 7 mps 751 mmHg 73%
    20:00 +14°C° 0 mm 7 mps 751 mmHg 75%
    21:00 +14°C° 0.1 mm 7 mps 751 mmHg 74%
    22:00 +14°C° 0.1 mm 7 mps 751 mmHg 74%
    23:00 +14°C° 0.1 mm 7 mps 751 mmHg 73%

    18 Octubre, Jueves

    Tiempo Temperatura Precipitaciones Viento Presión Humedad
    00:00 +13°C° 0.1 mm 8 mps 750 mmHg 72%
    01:00 +13°C° 0.1 mm 8 mps 749 mmHg 72%
    02:00 +13°C° 0.1 mm 8 mps 749 mmHg 71%
    03:00 +13°C° 0.1 mm 9 mps 749 mmHg 71%
    04:00 +13°C° 0.1 mm 9 mps 748 mmHg 71%
    05:00 +13°C° 0.1 mm 10 mps 748 mmHg 71%
    06:00 +13°C° 0.1 mm 10 mps 748 mmHg 68%
    07:00 +14°C° 0.1 mm 11 mps 748 mmHg 64%
    08:00 +16°C° 0.1 mm 11 mps 748 mmHg 61%
    09:00 +17°C° 0 mm 11 mps 748 mmHg 56%
    10:00 +18°C° 0 mm 11 mps 748 mmHg 51%
    11:00 +21°C° 0 mm 11 mps 748 mmHg 46%
    12:00 +21°C° 0 mm 10 mps 747 mmHg 46%
    13:00 +22°C° 0 mm 10 mps 747 mmHg 45%
    14:00 +22°C° 0 mm 10 mps 746 mmHg 44%
    15:00 +21°C° 0 mm 10 mps 746 mmHg 48%
    16:00 +21°C° 0 mm 9 mps 747 mmHg 52%
    17:00 +19°C° 0 mm 9 mps 747 mmHg 56%
    18:00 +18°C° 0 mm 9 mps 747 mmHg 58%
    19:00 +18°C° 0 mm 9 mps 747 mmHg 61%
    20:00 +18°C° 0 mm 9 mps 748 mmHg 63%
    21:00 +17°C° 0 mm 8 mps 748 mmHg 63%
    22:00 +17°C° 0 mm 8 mps 748 mmHg 64%
    23:00 +17°C° 0 mm 7 mps 747 mmHg 65%

    19 Octubre, Viernes

    Tiempo Temperatura Precipitaciones Viento Presión Humedad
    00:00 +16°C° 0 mm 7 mps 747 mmHg 65%
    01:00 +16°C° 0 mm 7 mps 747 mmHg 65%
    02:00 +16°C° 0 mm 7 mps 747 mmHg 65%
    03:00 +15°C° 0 mm 7 mps 747 mmHg 65%
    04:00 +15°C° 0 mm 6 mps 747 mmHg 65%
    05:00 +15°C° 0 mm 6 mps 747 mmHg 65%
    06:00 +16°C° 0 mm 7 mps 747 mmHg 61%
    07:00 +17°C° 0 mm 7 mps 747 mmHg 57%
    08:00 +18°C° 0 mm 7 mps 748 mmHg 53%
    09:00 +21°C° 0 mm 7 mps 748 mmHg 49%
    10:00 +23°C° 0 mm 6 mps 748 mmHg 44%
    11:00 +26°C° 0 mm 6 mps 748 mmHg 40%
    12:00 +24°C° 0 mm 6 mps 747 mmHg 41%
    13:00 +24°C° 0 mm 6 mps 747 mmHg 42%
    14:00 +24°C° 0 mm 6 mps 746 mmHg 43%
    15:00 +23°C° 0 mm 5 mps 746 mmHg 48%
    16:00 +22°C° 0 mm 4 mps 746 mmHg 53%
    17:00 +20°C° 0 mm 3 mps 746 mmHg 58%
    18:00 +20°C° 0.1 mm 3 mps 747 mmHg 60%
    19:00 +20°C° 0.1 mm 3 mps 747 mmHg 61%
    20:00 +20°C° 0.1 mm 3 mps 747 mmHg 62%
    21:00 +19°C° 0 mm 4 mps 747 mmHg 64%
    22:00 +19°C° 0 mm 4 mps 747 mmHg 66%
    23:00 +18°C° 0 mm 4 mps 747 mmHg 68%

    20 Octubre, Sábado

    Tiempo Temperatura Precipitaciones Viento Presión Humedad
    00:00 +18°C° 0 mm 4 mps 747 mmHg 70%
    01:00 +17°C° 0 mm 4 mps 747 mmHg 72%
    02:00 +17°C° 0 mm 4 mps 747 mmHg 74%
    03:00 +17°C° 0 mm 4 mps 747 mmHg 75%
    04:00 +15°C° 0 mm 4 mps 747 mmHg 76%
    05:00 +15°C° 0 mm 4 mps 747 mmHg 78%
    06:00 +16°C° 0 mm 5 mps 748 mmHg 74%
    07:00 +17°C° 0 mm 5 mps 748 mmHg 70%
    08:00 +19°C° 0 mm 6 mps 748 mmHg 67%
    09:00 +20°C° 0 mm 6 mps 749 mmHg 63%
    10:00 +20°C° 0 mm 6 mps 749 mmHg 59%
    11:00 +21°C° 0 mm 5 mps 749 mmHg 55%
    12:00 +22°C° 0 mm 5 mps 749 mmHg 49%
    13:00 +23°C° 0 mm 4 mps 748 mmHg 42%
    14:00 +25°C° 0 mm 3 mps 748 mmHg 35%
    15:00 +24°C° 0 mm 3 mps 748 mmHg 39%
    16:00 +21°C° 0 mm 2 mps 748 mmHg 42%
    17:00 +20°C° 0 mm 2 mps 749 mmHg 45%
    18:00 +19°C° 0 mm 2 mps 749 mmHg 49%
    19:00 +18°C° 0 mm 2 mps 749 mmHg 53%
    20:00 +17°C° 0 mm 3 mps 749 mmHg 58%
    21:00 +17°C° 0 mm 3 mps 749 mmHg 60%
    22:00 +16°C° 0 mm 2 mps 749 mmHg 62%
    23:00 +16°C° 0 mm 2 mps 749 mmHg 65%
    Mostrar más